Weather History for Minden, LA

Change the Weather History Date:

Wednesday, March 28, 2012

  Actual Average (KBAD) Record (KBAD)
Temperature  
Mean Temperature 70 °F -  
Max Temperature 82 °F 69 °F 85 °F (2007)
Min Temperature 57 °F 50 °F 37 °F (2009)
Cooling Degree Days 4    
Growing Degree Days 20 (Base 50)    
Moisture  
Dew Point 58 °F    
Average Humidity 72    
Maximum Humidity 94    
Minimum Humidity 39    
Precipitation  
Precipitation 0.00 in - - ()
Sea Level Pressure  
Sea Level Pressure 30.09 in    
Wind  
Wind Speed 2 mph ()    
Max Wind Speed 12 mph    
Max Gust Speed 16 mph    
Visibility 9.1 miles    
Events      
Averages and records for this station are not official NWS values.
T = Trace of Precipitation, MM = Missing Value Source: Averaged Metar Reports

Daily Weather History Graph

Daily Weather History Graph

Search for Another Location

Airport:

Trip Planner

Search our weather history database for the weather conditions in past years. The results will help you decide how hot, cold, wet, or windy it might be!

Date:

Astronomy

Mar. 28, 2012 Rise Set
Actual Time 7:05 AM CDT 7:30 PM CDT
Civil Twilight 6:41 AM CDT 7:55 PM CDT
Nautical Twilight 6:12 AM CDT 8:24 PM CDT
Astronomical Twilight 5:42 AM CDT 8:53 PM CDT
Moon 10:40 AM CDT (3/28) 12:16 AM CDT (3/28)
Length of Visible Light 13h 14m
Length of Day
12h 25m
Waxing Crescent, 30% of the Moon is Illuminated
Mar 28
Waxing Crescent
Mar 30
First Quarter
Apr 6
Full
Apr 13
Last Quarter
Apr 21
New

Hourly Weather History & Observations

Time (CDT) Temp. Heat Index Dew Point Humidity Pressure Visibility Wind Dir Wind Speed Gust Speed Precip Events Conditions
12:14 AM 69.8 °F - 57.2 °F 64% 30.09 in 10.0 mi South 4.6 mph - N/A   Clear
12:34 AM 68.0 °F - 57.2 °F 68% 30.09 in 10.0 mi SSE 4.6 mph - N/A   Clear
12:54 AM 68.0 °F - 57.2 °F 68% 30.08 in 10.0 mi South 3.5 mph - N/A   Clear
1:16 AM 66.2 °F - 57.2 °F 73% 30.09 in 10.0 mi Calm Calm - N/A   Clear
1:34 AM 66.2 °F - 57.2 °F 73% 30.09 in 10.0 mi Calm Calm - N/A   Clear
1:35 AM 66.2 °F - 57.2 °F 73% 30.09 in 10.0 mi Calm Calm - N/A   Clear
1:55 AM 66.2 °F - 57.2 °F 73% 30.09 in 10.0 mi Calm Calm - N/A   Clear
2:17 AM 66.2 °F - 57.2 °F 73% 30.09 in 10.0 mi Calm Calm - N/A   Clear
2:33 AM 64.4 °F - 57.2 °F 77% 30.09 in 10.0 mi Calm Calm - N/A   Clear
2:54 AM 64.4 °F - 57.2 °F 77% 30.09 in 10.0 mi Calm Calm - N/A   Clear
3:14 AM 62.6 °F - 57.2 °F 82% 30.09 in 10.0 mi Calm Calm - N/A   Clear
3:35 AM 60.8 °F - 55.4 °F 82% 30.10 in 10.0 mi Calm Calm - N/A   Clear
3:54 AM 60.8 °F - 57.2 °F 88% 30.10 in 10.0 mi Calm Calm - N/A   Clear
3:55 AM 60.8 °F - 55.4 °F 82% 30.10 in 10.0 mi Calm Calm - N/A   Clear
4:13 AM 60.8 °F - 57.2 °F 88% 30.10 in 10.0 mi Calm Calm - N/A   Clear
4:15 AM 60.8 °F - 55.4 °F 82% 30.11 in 10.0 mi Calm Calm - N/A   Clear
4:34 AM 60.8 °F - 57.2 °F 88% 30.10 in 10.0 mi Calm Calm - N/A   Clear
4:35 AM 59.0 °F - 55.4 °F 88% 30.10 in 10.0 mi Calm Calm - N/A   Clear
4:54 AM 59.0 °F - 55.4 °F 88% 30.11 in 7.0 mi Calm Calm - N/A   Clear
4:55 AM 59.0 °F - 55.4 °F 88% 30.11 in 7.0 mi Calm Calm - N/A   Clear
5:15 AM 59.0 °F - 55.4 °F 88% 30.11 in 7.0 mi Calm Calm - N/A   Clear
5:19 AM 57.2 °F - 55.4 °F 94% 30.11 in 5.0 mi Calm Calm - N/A   Clear
5:35 AM 57.2 °F - 53.6 °F 88% 30.11 in 5.0 mi Calm Calm - N/A   Clear
5:39 AM 57.2 °F - 55.4 °F 94% 30.11 in 5.0 mi Calm Calm - N/A   Clear
5:55 AM 59.0 °F - 55.4 °F 88% 30.11 in 5.0 mi Calm Calm - N/A   Clear
5:59 AM 59.0 °F - 55.4 °F 88% 30.11 in 5.0 mi Calm Calm - N/A   Clear
6:15 AM 57.2 °F - 55.4 °F 94% 30.11 in 5.0 mi East 3.5 mph - N/A   Clear
6:19 AM 57.2 °F - 55.4 °F 94% 30.11 in 5.0 mi ESE 3.5 mph - N/A   Clear
6:35 AM 57.2 °F - 55.4 °F 94% 30.12 in 7.0 mi East 3.5 mph - N/A   Clear
6:39 AM 59.0 °F - 55.4 °F 88% 30.12 in 7.0 mi ESE 3.5 mph - N/A   Clear
6:55 AM 57.2 °F - 55.4 °F 94% 30.12 in 7.0 mi Calm Calm - N/A   Clear
6:59 AM 57.2 °F - 55.4 °F 94% 30.12 in 5.0 mi Calm Calm - N/A   Clear
7:15 AM 57.2 °F - 53.6 °F 88% 30.13 in 4.0 mi Calm Calm - N/A   Clear
7:34 AM 57.2 °F - 55.4 °F 94% 30.13 in 5.0 mi Calm Calm - N/A   Clear
7:35 AM 57.2 °F - 55.4 °F 94% 30.13 in 5.0 mi Calm Calm - N/A   Clear
7:53 AM 59.0 °F - 57.2 °F 94% 30.14 in 5.0 mi Calm Calm - N/A   Clear
7:55 AM 59.0 °F - 55.4 °F 88% 30.14 in 7.0 mi Calm Calm - N/A   Clear
8:14 AM 62.6 °F - 57.2 °F 82% 30.14 in 7.0 mi Calm Calm - N/A   Clear
8:15 AM 60.8 °F - 57.2 °F 88% 30.14 in 7.0 mi Calm Calm - N/A   Clear
8:33 AM 64.4 °F - 59.0 °F 83% 30.15 in 10.0 mi Calm Calm - N/A   Clear
8:35 AM 62.6 °F - 59.0 °F 88% 30.15 in 10.0 mi Calm Calm - N/A   Clear
8:54 AM 66.2 °F - 60.8 °F 83% 30.14 in 10.0 mi SE 3.5 mph - N/A   Clear
9:13 AM 68.0 °F - 60.8 °F 78% 30.14 in 10.0 mi SE 4.6 mph - N/A   Clear
9:35 AM 68.0 °F - 60.8 °F 78% 30.15 in 10.0 mi Calm Calm - N/A   Clear
9:37 AM 69.8 °F - 60.8 °F 73% 30.15 in 10.0 mi Calm Calm - N/A   Clear
9:54 AM 69.8 °F - 62.6 °F 78% 30.15 in 10.0 mi SSW 3.5 mph - N/A   Clear
9:55 AM 69.8 °F - 60.8 °F 73% 30.15 in 10.0 mi SSW 3.5 mph - N/A   Clear
10:14 AM 71.6 °F - 62.6 °F 73% 30.16 in 10.0 mi SSW 4.6 mph - N/A   Clear
10:33 AM 73.4 °F - 62.6 °F 69% 30.16 in 10.0 mi SE 3.5 mph - N/A   Scattered Clouds
10:55 AM 73.4 °F - 62.6 °F 69% 30.17 in 10.0 mi Calm Calm - N/A   Scattered Clouds
11:14 AM 73.4 °F - 60.8 °F 65% 30.16 in 10.0 mi Calm Calm - N/A   Scattered Clouds
11:35 AM 75.2 °F - 59.0 °F 57% 30.15 in 10.0 mi SSE 5.8 mph - N/A   Scattered Clouds
11:54 AM 77.0 °F - 55.4 °F 47% 30.15 in 10.0 mi SSE 5.8 mph - N/A   Clear
12:13 PM 77.0 °F - 57.2 °F 50% 30.14 in 10.0 mi SSE 9.2 mph - N/A   Clear
12:15 PM 77.0 °F - 55.4 °F 47% 30.14 in 10.0 mi SSE 8.1 mph - N/A   Clear
12:33 PM 78.8 °F - 59.0 °F 51% 30.13 in 10.0 mi South 4.6 mph - N/A   Clear
12:55 PM 78.8 °F - 57.2 °F 47% 30.13 in 10.0 mi SE 8.1 mph - N/A   Scattered Clouds
1:13 PM 78.8 °F - 57.2 °F 47% 30.12 in 10.0 mi South 6.9 mph - N/A   Scattered Clouds
1:33 PM 80.6 °F 80.8 °F 57.2 °F 45% 30.11 in 10.0 mi South 11.5 mph 16.1 mph N/A   Clear
1:54 PM 78.8 °F - 57.2 °F 47% 30.10 in 10.0 mi South 6.9 mph - N/A   Scattered Clouds
2:13 PM 78.8 °F - 57.2 °F 47% 30.09 in 10.0 mi SW 5.8 mph - N/A   Scattered Clouds
2:33 PM 78.8 °F - 57.2 °F 47% 30.07 in 10.0 mi Calm Calm - N/A   Scattered Clouds
2:56 PM 80.6 °F 80.8 °F 57.2 °F 45% 30.06 in 10.0 mi WSW 4.6 mph - N/A   Scattered Clouds
3:14 PM 80.6 °F 80.8 °F 57.2 °F 45% 30.06 in 10.0 mi Calm Calm - N/A   Mostly Cloudy
3:33 PM 80.6 °F 80.8 °F 57.2 °F 45% 30.05 in 10.0 mi WSW 5.8 mph - N/A   Mostly Cloudy
3:54 PM 82.4 °F 82.0 °F 57.2 °F 42% 30.04 in 10.0 mi SSW 10.4 mph - N/A   Scattered Clouds
4:16 PM 80.6 °F 80.8 °F 57.2 °F 45% 30.03 in 10.0 mi SSW 3.5 mph - N/A   Clear
4:33 PM 82.4 °F 81.7 °F 55.4 °F 39% 30.03 in 10.0 mi South 6.9 mph - N/A   Scattered Clouds
4:53 PM 80.6 °F 80.5 °F 55.4 °F 42% 30.02 in 10.0 mi SSE 8.1 mph - N/A   Scattered Clouds
5:13 PM 80.6 °F 80.3 °F 53.6 °F 39% 30.01 in 10.0 mi South 6.9 mph - N/A   Mostly Cloudy
5:57 PM 80.6 °F 80.8 °F 57.2 °F 45% 30.01 in 10.0 mi South 6.9 mph - N/A   Mostly Cloudy
6:13 PM 78.8 °F - 55.4 °F 44% 30.01 in 10.0 mi South 5.8 mph - N/A   Scattered Clouds
6:37 PM 78.8 °F - 57.2 °F 47% 30.01 in 10.0 mi SSW 3.5 mph - N/A   Clear
6:53 PM 77.0 °F - 59.0 °F 54% 30.01 in 10.0 mi South 3.5 mph - N/A   Clear
6:55 PM 77.0 °F - 59.0 °F 54% 30.01 in 10.0 mi South 3.5 mph - N/A   Clear
7:15 PM 75.2 °F - 59.0 °F 57% 30.01 in 10.0 mi Calm Calm - N/A   Clear
7:35 PM 73.4 °F - 60.8 °F 65% 30.01 in 10.0 mi Calm Calm - N/A   Clear
7:53 PM 71.6 °F - 60.8 °F 69% 30.01 in 10.0 mi Calm Calm - N/A   Clear
7:55 PM 71.6 °F - 60.8 °F 69% 30.01 in 10.0 mi Calm Calm - N/A   Clear
8:15 PM 69.8 °F - 59.0 °F 68% 30.02 in 10.0 mi Calm Calm - N/A   Clear
8:35 PM 69.8 °F - 60.8 °F 73% 30.02 in 10.0 mi Calm Calm - N/A   Clear
8:54 PM 69.8 °F - 62.6 °F 78% 30.03 in 10.0 mi Calm Calm - N/A   Clear
8:55 PM 68.0 °F - 60.8 °F 78% 30.03 in 10.0 mi Calm Calm - N/A   Clear
9:15 PM 68.0 °F - 60.8 °F 78% 30.03 in 10.0 mi Calm Calm - N/A   Clear
9:33 PM 69.8 °F - 62.6 °F 78% 30.03 in 10.0 mi Calm Calm - N/A   Clear
9:35 PM 68.0 °F - 60.8 °F 78% 30.03 in 10.0 mi Calm Calm - N/A   Clear
9:54 PM 68.0 °F - 60.8 °F 78% 30.03 in 10.0 mi Calm Calm - N/A   Scattered Clouds
9:55 PM 68.0 °F - 60.8 °F 78% 30.03 in 10.0 mi Calm Calm - N/A   Scattered Clouds
10:13 PM 66.2 °F - 60.8 °F 83% 30.03 in 10.0 mi Calm Calm - N/A   Scattered Clouds
10:15 PM 66.2 °F - 60.8 °F 83% 30.03 in 10.0 mi Calm Calm - N/A   Scattered Clouds
10:34 PM 69.8 °F - 60.8 °F 73% 30.03 in 10.0 mi SE 3.5 mph - N/A   Scattered Clouds
10:53 PM 69.8 °F - 60.8 °F 73% 30.02 in 10.0 mi SSE 3.5 mph - N/A   Clear
11:14 PM 69.8 °F - 60.8 °F 73% 30.02 in 10.0 mi Calm Calm - N/A   Clear
11:35 PM 69.8 °F - 60.8 °F 73% 30.01 in 10.0 mi Calm Calm - N/A   Clear
11:57 PM 69.8 °F - 60.8 °F 73% 30.02 in 10.0 mi Calm Calm - N/A   Clear